When you browse on this site, cookies collect data to enhance your experience and personalize the content and advertising you see.
Visit our Privacy Policy to learn more. By continuing to use the site, you agree to this use of cookies and data.
  • In Sweden
  • List of Countries
  • For 7 days
  • Water Temperature
  • Satellite Maps
  • Weather Map
  • Weather Widgets
  • user-avatar
    Login

    Hourly Weather Oszkowice

    Today, 19 February, Tuesday

    Time Temperature Precipitation Wind Pressure Humidity
    00:00 +3°C° 0 mm 3 mps 754 mmHg 73%
    01:00 +3°C° 0 mm 3 mps 753 mmHg 76%
    02:00 +3°C° 0 mm 3 mps 753 mmHg 77%
    03:00 +2°C° 0 mm 3 mps 752 mmHg 78%
    04:00 +2°C° 0 mm 3 mps 752 mmHg 79%
    05:00 +2°C° 0 mm 3 mps 752 mmHg 78%
    06:00 +1°C° 0 mm 4 mps 751 mmHg 77%
    07:00 +1°C° 0 mm 3 mps 751 mmHg 76%
    08:00 +1°C° 0 mm 4 mps 751 mmHg 71%
    09:00 +3°C° 0 mm 5 mps 751 mmHg 66%
    10:00 +5°C° 0 mm 5 mps 750 mmHg 61%
    11:00 +5°C° 0 mm 6 mps 750 mmHg 59%
    12:00 +8°C° 0 mm 6 mps 750 mmHg 56%
    13:00 +10°C° 0 mm 5 mps 750 mmHg 54%
    14:00 +10°C° 0 mm 5 mps 750 mmHg 57%
    15:00 +9°C° 0 mm 5 mps 750 mmHg 60%
    16:00 +9°C° 0 mm 5 mps 749 mmHg 63%
    17:00 +8°C° 0 mm 5 mps 750 mmHg 69%
    18:00 +7°C° 0 mm 5 mps 750 mmHg 76%
    19:00 +6°C° 0 mm 4 mps 750 mmHg 82%
    20:00 +6°C° 0 mm 4 mps 750 mmHg 83%
    21:00 +5°C° 0 mm 5 mps 750 mmHg 85%
    22:00 +5°C° 0 mm 5 mps 750 mmHg 86%
    23:00 +3°C° 0 mm 5 mps 750 mmHg 86%

    Tomorrow, 20 February, Wednesday

    Time Temperature Precipitation Wind Pressure Humidity
    00:00 +3°C° 0 mm 5 mps 751 mmHg 86%
    01:00 +3°C° 0 mm 5 mps 751 mmHg 86%
    02:00 +2°C° 0 mm 5 mps 751 mmHg 87%
    03:00 +2°C° 0 mm 6 mps 751 mmHg 88%
    04:00 +2°C° 0 mm 6 mps 751 mmHg 89%
    05:00 +2°C° 0 mm 6 mps 751 mmHg 87%
    06:00 +2°C° 0 mm 6 mps 752 mmHg 85%
    07:00 +2°C° 0 mm 6 mps 752 mmHg 83%
    08:00 +3°C° 0.1 mm 6 mps 752 mmHg 81%
    09:00 +3°C° 0.1 mm 7 mps 753 mmHg 78%
    10:00 +3°C° 0.1 mm 7 mps 753 mmHg 76%
    11:00 +3°C° 0.1 mm 7 mps 753 mmHg 74%
    12:00 +4°C° 0.1 mm 7 mps 753 mmHg 72%
    13:00 +4°C° 0.1 mm 7 mps 754 mmHg 69%
    14:00 +4°C° 0.1 mm 7 mps 754 mmHg 70%
    15:00 +4°C° 0.1 mm 6 mps 754 mmHg 71%
    16:00 +4°C° 0.1 mm 6 mps 754 mmHg 72%
    17:00 +5°C° 0.1 mm 5 mps 755 mmHg 74%
    18:00 +3°C° 0.1 mm 5 mps 755 mmHg 76%
    19:00 +3°C° 0.1 mm 5 mps 755 mmHg 78%
    20:00 +4°C° 0 mm 4 mps 755 mmHg 80%
    21:00 +4°C° 0 mm 4 mps 756 mmHg 82%
    22:00 +4°C° 0 mm 4 mps 756 mmHg 84%
    23:00 +3°C° 0 mm 4 mps 756 mmHg 86%

    Day after tomorrow, 21 February, Thursday

    Time Temperature Precipitation Wind Pressure Humidity
    00:00 +3°C° 0 mm 4 mps 756 mmHg 88%
    01:00 +3°C° 0 mm 3 mps 757 mmHg 89%
    02:00 +3°C° 0 mm 3 mps 756 mmHg 91%
    03:00 +3°C° 0 mm 4 mps 756 mmHg 92%
    04:00 +3°C° 0 mm 4 mps 756 mmHg 93%
    05:00 +3°C° 0.1 mm 4 mps 756 mmHg 92%
    06:00 +3°C° 0.1 mm 4 mps 756 mmHg 92%
    07:00 +2°C° 0.1 mm 5 mps 756 mmHg 91%
    08:00 +3°C° 0.5 mm 5 mps 755 mmHg 89%
    09:00 +3°C° 0.5 mm 6 mps 755 mmHg 87%
    10:00 +3°C° 0.5 mm 6 mps 755 mmHg 86%
    11:00 +3°C° 0.8 mm 6 mps 755 mmHg 86%
    12:00 +3°C° 0.8 mm 7 mps 754 mmHg 86%
    13:00 +4°C° 0.8 mm 7 mps 754 mmHg 86%
    14:00 +4°C° 0.4 mm 7 mps 754 mmHg 86%
    15:00 +4°C° 0.4 mm 6 mps 754 mmHg 86%
    16:00 +4°C° 0.4 mm 6 mps 753 mmHg 86%
    17:00 +4°C° 0.4 mm 6 mps 753 mmHg 87%
    18:00 +5°C° 0.4 mm 6 mps 753 mmHg 88%
    19:00 +5°C° 0.4 mm 6 mps 753 mmHg 89%
    20:00 +5°C° 0.2 mm 6 mps 753 mmHg 89%
    21:00 +5°C° 0.2 mm 6 mps 753 mmHg 90%
    22:00 +5°C° 0.2 mm 6 mps 754 mmHg 90%
    23:00 +5°C° 0.3 mm 6 mps 754 mmHg 90%

    22 February, Friday

    Time Temperature Precipitation Wind Pressure Humidity
    00:00 +4°C° 0.3 mm 6 mps 754 mmHg 91%
    01:00 +4°C° 0.3 mm 6 mps 755 mmHg 92%
    02:00 +2°C° 0.5 mm 6 mps 756 mmHg 89%
    03:00 -1°C° 0.5 mm 7 mps 756 mmHg 86%
    04:00 -3°C° 0.5 mm 7 mps 757 mmHg 83%
    05:00 -3°C° 0 mm 7 mps 758 mmHg 78%
    06:00 -4°C° 0 mm 6 mps 760 mmHg 74%
    07:00 -5°C° 0 mm 6 mps 761 mmHg 69%
    08:00 -4°C° 0 mm 6 mps 763 mmHg 65%
    09:00 -4°C° 0 mm 6 mps 764 mmHg 61%
    10:00 -4°C° 0 mm 6 mps 765 mmHg 57%
    11:00 -4°C° 0 mm 6 mps 766 mmHg 54%
    12:00 -2°C° 0 mm 5 mps 766 mmHg 50%
    13:00 -2°C° 0 mm 5 mps 767 mmHg 46%
    14:00 -2°C° 0 mm 4 mps 767 mmHg 47%
    15:00 -2°C° 0 mm 4 mps 767 mmHg 47%
    16:00 -3°C° 0 mm 4 mps 768 mmHg 48%
    17:00 -2°C° 0 mm 3 mps 768 mmHg 50%
    18:00 -4°C° 0 mm 3 mps 769 mmHg 53%
    19:00 -3°C° 0 mm 2 mps 769 mmHg 55%
    20:00 -3°C° 0 mm 2 mps 770 mmHg 54%
    21:00 -1°C° 0 mm 1 mps 770 mmHg 54%
    22:00 -1°C° 0 mm 1 mps 770 mmHg 53%
    23:00 -1°C° 0 mm 1 mps 770 mmHg 52%

    23 February, Saturday

    Time Temperature Precipitation Wind Pressure Humidity
    00:00 -1°C° 0 mm 1 mps 770 mmHg 51%
    01:00 -2°C° 0 mm 0 mps 770 mmHg 50%
    02:00 -1°C° 0 mm 1 mps 770 mmHg 50%
    03:00 -2°C° 0 mm 1 mps 770 mmHg 50%
    04:00 -2°C° 0 mm 1 mps 770 mmHg 50%
    05:00 -2°C° 0 mm 1 mps 770 mmHg 50%
    06:00 -2°C° 0 mm 1 mps 770 mmHg 51%
    07:00 -3°C° 0 mm 0 mps 769 mmHg 51%
    08:00 -1°C° 0 mm 1 mps 770 mmHg 47%
    09:00 0°C° 0 mm 1 mps 770 mmHg 42%
    10:00 +1°C° 0 mm 1 mps 770 mmHg 38%
    11:00 +1°C° 0 mm 1 mps 769 mmHg 36%
    12:00 +1°C° 0 mm 2 mps 769 mmHg 33%
    13:00 +2°C° 0 mm 2 mps 769 mmHg 31%
    14:00 +2°C° 0 mm 2 mps 768 mmHg 34%
    15:00 +1°C° 0 mm 2 mps 768 mmHg 38%
    16:00 +1°C° 0 mm 2 mps 767 mmHg 41%
    17:00 +2°C° 0 mm 1 mps 767 mmHg 44%
    18:00 +2°C° 0 mm 1 mps 767 mmHg 48%
    19:00 +1°C° 0 mm 1 mps 767 mmHg 52%
    20:00 +1°C° 0 mm 1 mps 767 mmHg 52%
    21:00 +1°C° 0 mm 1 mps 766 mmHg 52%
    22:00 -1°C° 0 mm 2 mps 766 mmHg 52%
    23:00 -1°C° 0 mm 2 mps 766 mmHg 54%

    24 February, Sunday

    Time Temperature Precipitation Wind Pressure Humidity
    00:00 -1°C° 0 mm 2 mps 766 mmHg 56%
    01:00 -1°C° 0 mm 3 mps 765 mmHg 57%
    02:00 -1°C° 0 mm 3 mps 765 mmHg 64%
    03:00 -1°C° 0 mm 3 mps 765 mmHg 71%
    04:00 -1°C° 0 mm 3 mps 765 mmHg 77%
    05:00 -1°C° 0 mm 3 mps 765 mmHg 83%
    06:00 -1°C° 0 mm 2 mps 765 mmHg 88%
    07:00 +1°C° 0 mm 2 mps 765 mmHg 93%
    08:00 +1°C° 0 mm 2 mps 765 mmHg 92%
    09:00 +1°C° 0 mm 3 mps 766 mmHg 90%
    10:00 +2°C° 0 mm 3 mps 766 mmHg 89%
    11:00 +2°C° 0 mm 3 mps 766 mmHg 87%
    12:00 +3°C° 0 mm 2 mps 766 mmHg 86%
    13:00 +4°C° 0 mm 2 mps 767 mmHg 84%
    14:00 +4°C° 0 mm 2 mps 767 mmHg 83%
    15:00 +4°C° 0 mm 2 mps 767 mmHg 82%
    16:00 +4°C° 0 mm 2 mps 767 mmHg 81%
    17:00 +3°C° 0 mm 2 mps 767 mmHg 82%
    18:00 +3°C° 0 mm 2 mps 767 mmHg 84%
    19:00 +2°C° 0 mm 2 mps 768 mmHg 85%
    20:00 +2°C° 0 mm 2 mps 768 mmHg 86%
    21:00 +3°C° 0 mm 1 mps 768 mmHg 86%
    22:00 +2°C° 0 mm 1 mps 768 mmHg 87%
    23:00 +2°C° 0 mm 1 mps 768 mmHg 87%
    Show more